Location: Boiro
(42.6475°N, 8.8834°W)
Time: 18:53:45
(UTC+01:00)

Altair - Pass Details

Date: 01 December 2021
Orbit: 1501 x 1683 km, 47.2° (Epoch: 25 January)

Event Time Altitude Azimuth Distance (km) Brightness Sun altitude
Rises 00:09:50 0° 296° (WNW) 4,649 10.4 -64.0°
Enters shadow 00:12:00 - 294° (WNW) 3,944 9.9 -64.2°
Reaches altitude 10° 00:12:54 10° 292° (WNW) 3,658 - -64.4°
Maximum altitude 00:21:49 59° 217° (SW) 1,700 - -65.4°
Drops below altitude 10° 00:30:48 10° 140° (SE) 3,682 - -66.3°
Sets 00:33:55 0° 137° (SE) 4,680 - -66.6°
